DL6AKI-13 Weather Reports


time (UTC)temp
C
wind
direction
speed
KPH
gust
KPH
rain 1hr
cm
rain 24hr
cm
rain mn
cm
humidity
%
barometer
mb
20200226015312 3 150 16.1 25.7 0.00 0.71 0.00 73 990.2
20200226014811 3 170 22.5 25.7 0.00 0.71 0.00 73 990.2
20200226014312 3 205 20.9 30.6 0.00 0.71 0.00 73 990.2
20200226013811 3 155 22.5 30.6 0.00 0.71 0.00 73 990.2
20200226013312 3 200 24.1 30.6 0.00 0.71 0.00 73 990.2
20200226012811 4 280 25.7 30.6 0.00 0.74 0.00 73 990.2
20200226012311 4 190 24.1 27.4 0.00 0.74 0.00 72 990.2
20200226011811 4 185 22.5 25.7 0.00 0.74 0.00 72 990.2
20200226011312 4 190 22.5 25.7 0.00 0.74 0.00 73 990.2
20200226010811 4 215 22.5 25.7 0.00 0.74 0.00 73 990.2
20200226010311 4 135 22.5 25.7 0.00 0.74 0.00 73 990.2
20200226005811 3 100 17.7 25.7 0.00 0.74 0.00 74 990.2
20200226005311 4 220 20.9 25.7 0.00 0.74 0.00 73 990.2
20200226004812 3 170 22.5 25.7 0.00 0.74 0.00 74 990.2
20200226004311 3 175 20.9 24.1 0.00 0.74 0.00 75 991.2
20200226003811 3 210 22.5 24.1 0.00 0.74 0.00 76 991.2
20200226003311 3 165 20.9 24.1 0.00 0.74 0.00 77 991.2
20200226002811 3 170 20.9 24.1 0.00 0.74 0.00 77 991.2
20200226002312 3 220 17.7 17.7 0.00 0.74 0.00 77 991.2
20200226001811 3 190 16.1 19.3 0.00 0.74 0.00 78 991.2
20200226001311 3 200 14.5 20.9 0.00 0.74 0.00 78 990.2
20200226000811 3 195 16.1 20.9 0.00 0.74 0.00 78 990.2
20200226000311 3 200 17.7 20.9 0.00 0.74 0.00 78 990.2
20200225235812 3 160 17.7 20.9 0.00 0.74 0.00 78 990.2
20200225235311 3 105 14.5 16.1 0.00 0.74 0.00 78 990.2
20200225234811 3 160 12.9 20.9 0.00 0.74 0.00 78 990.2
20200225234311 3 145 8.0 20.9 0.03 0.74 0.00 78 991.2
20200225233811 3 230 17.7 20.9 0.03 0.74 0.00 79 991.2
20200225233311 3 210 16.1 17.7 0.03 0.74 0.00 79 991.2
20200225232811 3 125 16.1 20.9 0.03 0.74 0.00 79 990.2
20200225232311 3 130 16.1 25.7 0.03 0.74 0.00 79 990.2
20200225231811 3 145 19.3 29.0 0.03 0.74 0.00 79 990.2
20200225231315 3 185 22.5 29.0 0.03 0.74 0.00 79 991.2
20200225230828 3 275 25.7 29.0 0.03 0.74 0.00 79 991.2
20200225230311 3 190 25.7 29.0 0.03 0.74 0.74 79 991.2
20200225225811 3 180 24.1 32.2 0.03 0.74 0.74 80 991.2
20200225225311 4 175 27.4 32.2 0.03 0.74 0.74 79 991.2
20200225224812 4 220 27.4 32.2 0.03 0.74 0.74 79 991.2
20200225224312 4 205 25.7 24.1 0.00 0.71 0.71 78 991.2
20200225223811 5 190 19.3 22.5 0.00 0.71 0.71 79 991.2
20200225223311 5 215 14.5 20.9 0.00 0.71 0.71 79 991.2
20200225222811 4 190 6.4 8.0 0.00 0.71 0.71 80 991.2
20200225222312 5 85 6.4 11.3 0.00 0.71 0.71 79 991.2
20200225221812 5 195 8.0 11.3 0.00 0.71 0.71 79 991.2
20200225221311 5 100 9.7 16.1 0.00 0.71 0.71 78 991.2
20200225220811 5 125 11.3 16.1 0.00 0.71 0.71 78 991.2
20200225220312 5 25 12.9 16.1 0.00 0.71 0.71 78 991.2
20200225215811 5 190 12.9 14.5 0.00 0.71 0.71 78 991.2
20200225215311 5 130 12.9 14.5 0.00 0.71 0.71 79 991.2
20200225214811 5 175 9.7 9.7 0.00 0.71 0.71 79 991.2
20200225214312 4 125 8.0 9.7 0.00 0.71 0.71 80 991.2
20200225213811 4 165 6.4 9.7 0.03 0.71 0.71 80 991.2
20200225213311 4 90 6.4 12.9 0.03 0.71 0.71 80 991.2
20200225212811 4 165 4.8 12.9 0.03 0.71 0.71 80 991.2
20200225212313 4 195 11.3 12.9 0.03 0.71 0.71 80 991.2
20200225211812 5 125 12.9 25.7 0.05 0.71 0.71 80 991.2
20200225211311 4 95 12.9 25.7 0.10 0.71 0.71 81 992.2
20200225210811 4 255 16.1 25.7 0.10 0.71 0.71 82 992.2
20200225210311 4 275 14.5 25.7 0.15 0.71 0.71 83 992.2
20200225205811 4 75 8.0 11.3 0.15 0.71 0.71 84 992.2
20200225205311 4 150 4.8 6.4 0.15 0.71 0.71 84 992.2
20200225204812 4 175 4.8 9.7 0.18 0.71 0.71 84 992.2
20200225204311 4 155 6.4 16.1 0.15 0.69 0.69 84 993.2
20200225203811 4 55 8.0 17.7 0.18 0.69 0.69 84 993.2
20200225203311 4 65 11.3 17.7 0.18 0.69 0.69 85 993.2
20200225202811 4 195 14.5 17.7 0.18 0.69 0.69 85 993.2
20200225202312 3 255 9.7 14.5 0.15 0.66 0.66 86 993.2
20200225201811 3 210 6.4 6.4 0.15 0.66 0.66 86 993.2
20200225201311 3 320 4.8 6.4 0.13 0.61 0.61 86 993.2
20200225200811 3 280 3.2 6.4 0.13 0.58 0.58 85 993.2
20200225200311 3 215 4.8 6.4 0.13 0.56 0.56 85 993.2
20200225195811 3 320 6.4 6.4 0.13 0.56 0.56 85 994.2
20200225195311 3 355 4.8 6.4 0.13 0.53 0.53 85 994.2
20200225194812 3 285 6.4 6.4 0.13 0.53 0.53 85 994.2
20200225194312 3 285 4.8 4.8 0.13 0.53 0.53 85 994.2
20200225193812 3 320 3.2 4.8 0.10 0.51 0.51 85 994.2
20200225193311 3 305 3.2 4.8 0.10 0.51 0.51 85 994.2
20200225192811 3 315 3.2 4.8 0.10 0.51 0.51 85 993.2
20200225192311 3 75 3.2 4.8 0.10 0.51 0.51 85 993.2
20200225191811 3 210 1.6 4.8 0.05 0.48 0.48 85 993.2
20200225191311 3 110 3.2 4.8 0.05 0.48 0.48 84 994.2
20200225190811 3 285 4.8 9.7 0.05 0.48 0.48 84 994.2
20200225190311 3 195 4.8 17.7 0.03 0.43 0.43 84 994.2
20200225185811 3 155 9.7 17.7 0.03 0.43 0.43 84 994.2
20200225185311 3 210 14.5 17.7 0.00 0.41 0.41 84 994.2
20200225184811 3 190 16.1 17.7 0.00 0.43 0.41 83 994.2
20200225184311 3 190 14.5 17.7 0.03 0.43 0.41 83 994.2
20200225183811 3 200 14.5 17.7 0.05 0.43 0.41 83 994.2
20200225183311 3 190 11.3 9.7 0.10 0.43 0.41 83 994.2
20200225182812 3 180 6.4 6.4 0.15 0.43 0.41 83 994.2
20200225182312 3 140 6.4 6.4 0.23 0.43 0.41 83 994.2
20200225181811 3 190 6.4 8.0 0.23 0.43 0.41 82 994.2
20200225181311 3 155 6.4 9.7 0.25 0.43 0.41 82 994.2
20200225180811 3 130 8.0 9.7 0.25 0.43 0.41 81 994.2
20200225180311 3 130 8.0 9.7 0.25 0.43 0.41 81 994.2
20200225175811 3 70 6.4 9.7 0.25 0.43 0.41 81 995.2
20200225175312 3 165 8.0 9.7 0.25 0.43 0.41 81 995.2
20200225174812 3 105 8.0 9.7 0.25 0.41 0.38 81 995.2
20200225174312 3 5 8.0 17.7 0.25 0.41 0.36 81 995.2
20200225173811 3 195 9.7 17.7 0.20 0.36 0.33 80 995.2
20200225173311 3 75 9.7 17.7 0.23 0.33 0.30 80 995.2
20200225172811 3 310 12.9 17.7 0.23 0.30 0.23 79 995.2
20200225172311 4 85 9.7 12.9 0.15 0.20 0.18 81 995.2
20200225171811 4 15 6.4 9.7 0.13 0.18 0.15 81 995.2
20200225171311 4 115 6.4 9.7 0.13 0.18 0.15 81 995.2
20200225170811 3 200 4.8 9.7 0.13 0.18 0.15 81 995.2
20200225170312 3 45 3.2 9.7 0.13 0.18 0.15 81 995.2
20200225165811 3 190 8.0 11.3 0.13 0.18 0.15 80 995.2
20200225165311 3 205 8.0 19.3 0.13 0.18 0.15 80 995.2
20200225164811 3 220 8.0 19.3 0.10 0.15 0.13 80 995.2
20200225164311 3 195 12.9 19.3 0.10 0.15 0.13 79 995.2
20200225163811 3 270 16.1 19.3 0.10 0.15 0.13 78 995.2
20200225163311 4 335 14.5 16.1 0.00 0.05 0.03 77 995.2
20200225162811 4 305 11.3 14.5 0.00 0.05 0.03 75 995.2
20200225162311 4 230 11.3 14.5 0.00 0.05 0.03 74 995.2
20200225161811 5 305 12.9 24.1 0.00 0.05 0.03 73 995.2
20200225161311 5 155 14.5 24.1 0.00 0.05 0.03 71 995.2
20200225160811 5 235 17.7 29.0 0.00 0.05 0.03 69 995.2
20200225160312 7 65 20.9 29.0 0.00 0.05 0.03 66 995.2
20200225155811 7 300 24.1 29.0 0.00 0.05 0.03 65 995.2
20200225155311 7 200 25.7 27.4 0.00 0.05 0.03 64 995.2
20200225154811 8 215 22.5 24.1 0.00 0.05 0.03 64 995.2
20200225154311 8 190 19.3 24.1 0.00 0.05 0.03 62 995.2
20200225153811 8 115 22.5 24.1 0.00 0.05 0.03 61 995.2
20200225153311 8 215 20.9 24.1 0.00 0.05 0.03 60 995.2
20200225152811 8 140 19.3 24.1 0.00 0.05 0.03 60 995.2
20200225152311 8 250 20.9 20.9 0.00 0.05 0.03 60 995.2
20200225151812 8 190 17.7 20.9 0.00 0.05 0.03 58 995.2
20200225151311 8 215 16.1 17.7 0.00 0.05 0.03 57 996.2
20200225150811 9 195 12.9 17.7 0.00 0.05 0.03 56 996.2
20200225150311 9 160 12.9 14.5 0.00 0.05 0.03 55 996.2
20200225145811 9 185 12.9 17.7 0.00 0.05 0.03 54 995.2
20200225145311 9 75 9.7 22.5 0.00 0.05 0.03 54 995.2
20200225144812 9 195 17.7 22.5 0.00 0.05 0.03 54 995.2
20200225144311 10 195 17.7 22.5 0.00 0.05 0.03 53 995.2
20200225143811 10 185 12.9 19.3 0.00 0.05 0.03 53 995.2
20200225143311 10 190 12.9 24.1 0.00 0.05 0.03 53 995.2
20200225142811 10 25 11.3 24.1 0.00 0.05 0.03 53 996.2
20200225142312 9 105 19.3 24.1 0.00 0.05 0.03 52 996.2
20200225141811 10 200 20.9 24.1 0.00 0.05 0.03 53 996.2
20200225141312 10 125 19.3 20.9 0.00 0.05 0.03 53 996.2
20200225140811 10 200 17.7 24.1 0.00 0.05 0.03 52 996.2
20200225140311 10 130 19.3 24.1 0.00 0.05 0.03 51 996.2
20200225135811 10 165 20.9 24.1 0.00 0.05 0.03 52 996.2
20200225135311 10 195 22.5 24.1 0.00 0.05 0.03 52 996.2
20200225134811 10 120 20.9 24.1 0.00 0.05 0.03 52 996.2
20200225134311 9 320 17.7 19.3 0.00 0.05 0.03 53 996.2
20200225133812 9 70 17.7 19.3 0.00 0.05 0.03 52 996.2
20200225133312 9 240 17.7 19.3 0.00 0.05 0.03 51 996.2
20200225132811 9 35 16.1 19.3 0.00 0.05 0.03 52 997.2
20200225132312 9 165 14.5 24.1 0.00 0.05 0.03 52 997.2
20200225131811 9 130 16.1 24.1 0.00 0.05 0.03 53 997.2
20200225131312 9 95 20.9 24.1 0.00 0.05 0.03 52 996.2
20200225130811 9 110 20.9 22.5 0.00 0.05 0.03 51 996.2
20200225130311 9 305 19.3 30.6 0.00 0.05 0.03 51 996.2
20200225125811 10 65 20.9 30.6 0.00 0.05 0.03 50 997.2
20200225125311 10 185 24.1 30.6 0.00 0.05 0.03 50 997.2
20200225124811 10 110 20.9 22.5 0.00 0.05 0.03 50 997.2
20200225124311 10 190 16.1 22.5 0.00 0.05 0.03 51 998.2
20200225123311 9 235 14.5 14.5 0.00 0.05 0.03 52 998.2
20200225122812 10 350 9.7 14.5 0.00 0.05 0.03 53 997.2
20200225122311 9 355 14.5 16.1 0.00 0.05 0.03 55 997.2
20200225121811 8 165 12.9 20.9 0.00 0.05 0.03 55 997.2
20200225121311 8 15 12.9 20.9 0.00 0.05 0.03 55 997.2
20200225120812 9 195 16.1 20.9 0.00 0.05 0.03 54 997.2
20200225120311 10 115 14.5 17.7 0.00 0.05 0.03 54 997.2
20200225115812 10 105 14.5 17.7 0.00 0.05 0.03 54 998.2
20200225115311 10 90 14.5 19.3 0.00 0.05 0.03 55 998.2
20200225114811 9 125 16.1 19.3 0.00 0.05 0.03 55 998.2
20200225114311 9 300 16.1 19.3 0.00 0.05 0.03 55 998.2
20200225113811 8 345 17.7 19.3 0.00 0.05 0.03 56 998.2
20200225113311 8 215 14.5 17.7 0.00 0.05 0.03 56 998.2
20200225112812 9 250 16.1 17.7 0.00 0.05 0.03 56 998.2
20200225112311 9 250 12.9 14.5 0.00 0.05 0.03 56 998.2
20200225111811 8 40 12.9 16.1 0.00 0.05 0.03 57 998.2
20200225111311 8 5 14.5 17.7 0.00 0.05 0.03 58 998.2
20200225110811 8 140 14.5 19.3 0.00 0.05 0.03 61 998.2
20200225110311 8 155 14.5 20.9 0.00 0.05 0.03 61 998.2
20200225105811 8 175 16.1 20.9 0.00 0.05 0.03 63 998.2
20200225105311 8 135 17.7 20.9 0.00 0.05 0.03 63 998.2
20200225104811 8 185 17.7 19.3 0.00 0.05 0.03 63 998.2
20200225104311 8 160 16.1 19.3 0.00 0.05 0.03 64 998.2
20200225103811 8 185 16.1 19.3 0.00 0.10 0.03 65 998.2
20200225103311 8 130 11.3 14.5 0.00 0.10 0.03 65 998.2
20200225102811 8 100 9.7 14.5 0.00 0.10 0.03 65 998.2
20200225102311 8 105 14.5 14.5 0.00 0.10 0.03 64 998.2
20200225101811 8 105 14.5 20.9 0.00 0.10 0.03 64 998.2
20200225101311 8 10 14.5 25.7 0.00 0.13 0.03 64 998.2
20200225100811 8 185 17.7 25.7 0.00 0.13 0.03 63 998.2
20200225100311 8 40 20.9 25.7 0.00 0.15 0.03 63 998.2
20200225095811 8 25 16.1 14.5 0.00 0.15 0.03 62 999.2
20200225095311 8 190 14.5 20.9 0.00 0.15 0.03 63 999.2
20200225094811 8 110 12.9 22.5 0.00 0.18 0.03 62 999.2
20200225094311 8 245 14.5 22.5 0.00 0.18 0.03 62 998.2
20200225093811 8 190 17.7 22.5 0.00 0.20 0.03 61 998.2
20200225093311 8 165 19.3 19.3 0.00 0.20 0.03 61 998.2
20200225092811 8 55 17.7 25.7 0.00 0.23 0.03 62 998.2
20200225092312 8 200 17.7 25.7 0.00 0.28 0.03 62 998.2
20200225091811 8 160 19.3 25.7 0.00 0.30 0.03 61 998.2
20200225091311 8 110 20.9 25.7 0.00 0.30 0.03 61 998.2
20200225090811 8 130 17.7 20.9 0.00 0.33 0.03 62 998.2
20200225090311 8 150 19.3 20.9 0.00 0.33 0.03 63 998.2
20200225085812 8 160 19.3 20.9 0.00 0.33 0.03 63 999.2
20200225085311 8 25 17.7 19.3 0.00 0.33 0.03 64 999.2
20200225084812 8 290 16.1 22.5 0.00 0.33 0.03 64 999.2
20200225084311 7 170 16.1 22.5 0.00 0.36 0.03 65 999.2
20200225083812 7 55 17.7 22.5 0.00 0.36 0.03 65 999.2
20200225083311 7 160 20.9 22.5 0.00 0.38 0.03 65 999.2
20200225082812 7 165 17.7 22.5 0.00 0.38 0.03 66 999.2
20200225082311 7 115 14.5 22.5 0.00 0.38 0.03 67 999.2
20200225081811 7 160 12.9 22.5 0.00 0.41 0.03 67 999.2
20200225080811 7 245 17.7 19.3 0.00 0.41 0.03 67 999.2
20200225080310 7 115 14.5 16.1 0.00 0.41 0.03 68 999.2
20200225075811 7 260 14.5 16.1 0.00 0.41 0.03 67 999.2
20200225075311 7 195 12.9 14.5 0.00 0.41 0.03 67 999.2
20200225074811 7 165 12.9 14.5 0.00 0.41 0.03 68 999.2
20200225074311 7 0 11.3 14.5 0.00 0.41 0.03 68 999.2
20200225073812 7 70 14.5 14.5 0.00 0.41 0.03 68 999.2
20200225073311 7 275 12.9 27.4 0.00 0.41 0.03 69 999.2
20200225072811 7 220 11.3 27.4 0.00 0.41 0.03 70 999.2
20200225072311 7 245 14.5 27.4 0.00 0.41 0.03 71 999.2
20200225071811 7 50 19.3 14.5 0.00 0.41 0.03 71 999.2
20200225071311 7 65 14.5 14.5 0.00 0.41 0.03 72 998.2
20200225070811 7 200 14.5 14.5 0.00 0.41 0.03 72 998.2
20200225070311 7 215 12.9 14.5 0.00 0.41 0.03 73 998.2
20200225065811 7 185 12.9 14.5 0.00 0.41 0.03 73 998.2
20200225065311 7 205 11.3 14.5 0.00 0.41 0.03 73 998.2
20200225064811 7 10 12.9 17.7 0.00 0.41 0.03 73 998.2
20200225064311 7 235 14.5 17.7 0.00 0.41 0.03 73 999.2
20200225063811 7 190 14.5 17.7 0.00 0.41 0.03 74 999.2
20200225063311 7 160 14.5 17.7 0.00 0.41 0.03 74 999.2
20200225062811 7 180 11.3 12.9 0.00 0.41 0.03 74 999.2
20200225062311 7 35 9.7 11.3 0.00 0.41 0.03 74 999.2
20200225061811 7 175 9.7 9.7 0.00 0.41 0.03 74 999.2
20200225061311 7 185 9.7 9.7 0.00 0.41 0.03 73 999.2
20200225060811 7 200 8.0 12.9 0.00 0.41 0.03 73 999.2
20200225060311 7 115 6.4 14.5 0.00 0.41 0.03 72 999.2
20200225055312 7 60 12.9 17.7 0.00 0.41 0.03 72 999.2
20200225054810 7 125 12.9 17.7 0.00 0.41 0.03 72 999.2
20200225054311 7 200 14.5 16.1 0.00 0.41 0.03 72 999.2
20200225053811 7 20 12.9 16.1 0.00 0.41 0.03 72 999.2
20200225053311 7 25 11.3 11.3 0.00 0.41 0.03 72 999.2
20200225052811 7 235 11.3 14.5 0.00 0.41 0.03 73 999.2
20200225052311 7 165 9.7 14.5 0.00 0.41 0.03 73 999.2
20200225051812 7 125 9.7 16.1 0.00 0.41 0.03 73 999.2
20200225051311 7 150 12.9 16.1 0.00 0.41 0.03 73 999.2
20200225050810 7 175 14.5 19.3 0.00 0.41 0.03 73 999.2
20200225050311 7 220 16.1 19.3 0.00 0.41 0.03 73 999.2
20200225045811 7 175 16.1 19.3 0.00 0.41 0.03 73 999.2
20200225045311 7 180 14.5 19.3 0.00 0.41 0.03 73 999.2
20200225044811 7 125 16.1 19.3 0.00 0.41 0.03 73 999.2
20200225044311 7 45 16.1 16.1 0.00 0.41 0.03 72 999.2
20200225043811 7 180 12.9 14.5 0.00 0.41 0.03 72 999.2
20200225043311 8 210 14.5 16.1 0.00 0.41 0.03 72 999.2
20200225042811 8 245 11.3 16.1 0.00 0.41 0.03 72 999.2
20200225042311 8 130 12.9 16.1 0.00 0.41 0.03 72 999.2
20200225041811 8 160 14.5 16.1 0.00 0.41 0.03 72 999.2
20200225041311 8 110 14.5 12.9 0.00 0.41 0.03 72 999.2
20200225040811 8 155 12.9 14.5 0.00 0.41 0.03 72 999.2
20200225035810 8 200 11.3 14.5 0.00 0.41 0.03 72 999.2
20200225035311 8 70 12.9 17.7 0.00 0.41 0.03 71 999.2
20200225034810 8 0 8.0 17.7 0.00 0.41 0.03 71 999.2
20200225034311 8 0 14.5 17.7 0.00 0.41 0.03 71 999.2
20200225033811 8 210 12.9 17.7 0.00 0.41 0.03 71 999.2
20200225033310 8 355 12.9 17.7 0.00 0.41 0.03 71 999.2
20200225032811 8 55 14.5 17.7 0.00 0.41 0.03 71 999.2
20200225032311 8 25 14.5 14.5 0.00 0.41 0.03 70 999.2
20200225031811 8 155 12.9 14.5 0.00 0.41 0.03 71 999.2
20200225031310 8 295 14.5 14.5 0.00 0.41 0.03 71 999.2
20200225030811 8 80 14.5 14.5 0.00 0.41 0.03 71 999.2
20200225030311 8 300 12.9 12.9 0.00 0.41 0.03 71 999.2
20200225025810 8 80 12.9 19.3 0.00 0.41 0.03 71 999.2
20200225025311 8 75 12.9 19.3 0.00 0.41 0.03 71 999.2
20200225024811 8 255 14.5 19.3 0.00 0.41 0.03 72 999.2
20200225024311 8 10 17.7 19.3 0.00 0.41 0.03 72 999.2
20200225023810 9 5 14.5 20.9 0.00 0.41 0.03 72 999.2
20200225023311 9 265 16.1 20.9 0.00 0.41 0.03 72 999.2
20200225022810 9 205 17.7 20.9 0.03 0.41 0.03 72 999.2
20200225022311 9 20 17.7 20.9 0.03 0.41 0.03 73 999.2
20200225021811 9 85 17.7 20.9 0.03 0.41 0.03 73 999.2
20200225021311 9 270 16.1 20.9 0.03 0.41 0.03 74 1000.2
20200225020810 9 205 16.1 20.9 0.03 0.41 0.03 74 1000.2
20200225020311 9 60 17.7 20.9 0.03 0.41 0.03 74 1000.2
20200225015811 9 115 19.3 20.9 0.03 0.41 0.03 75 1000.2